Tracking 27112 objects as of 28-Mar-2023
HD Live streaming from Space Station
objects crossing your sky now

USA 65

Track USA 65 now!
USA 65 is classified as:


NORAD ID: 20929
Int'l Code: 1990-095A
Perigee: 36,295.4 km
Apogee: 36,358.6 km
Inclination: 14.7 °
Period: 1,463.4 minutes
Semi major axis: 42698 km
RCS: Unknown
Launch date: November 13, 1990
Source: United States (US)
Launch site: AIR FORCE EASTERN TEST RANGE (AFETR)
Your satellite tracking list
Your tracking list is empty




NASA's NSSDC Master Catalog

Two Line Element Set (TLE):
1 20929U 90095A   23085.52349422 -.00000224  00000-0  00000-0 0  9993
2 20929  14.7388 352.4338 0007404  67.8127 292.2381  0.98399155 13863
Source of the keplerian elements: McCants